Location: Eaton
(41.3139°N, 82.0207°W)
Time: 12:28:17
(UTC+00:00)

Cosmos 1354 Rocket - Pass Details

Date: 17 June 2021
Orbit: 764 x 783 km, 74.0° (Epoch: 30 July)

Event Time Altitude Azimuth Distance (km) Brightness Sun altitude
Rises 05:07:18 0° 339° (NNW) 3,280 8.5 -25.1°
Reaches altitude 10° 05:09:42 10° 338° (NNW) 2,348 7.5 -25.1°
Maximum altitude 05:15:03 79° 253° (WSW) 803 3.9 -25.2°
Enters shadow 05:15:26 74° 206° (SSW) 818 3.9 -25.2°
